Pierre, SD

4:06 PM CST on November 18, 2019 (GMT -0600)
Pierre Regional

Weather History for KPIR - October, 2019

Change the Weather History Date:

Tuesday, October 22, 2019

  Actual Average Record
Temperature  
Mean Temperature 43 °F 46 °F  
Max Temperature 55 °F 58 °F 85 °F (1992)
Min Temperature 31 °F 34 °F 18 °F (1981)
Degree Days  
Heating Degree Days 22    
Month to date heating degree days 433  
Since 1 July heating degree days 530  
Cooling Degree Days 0    
Month to date cooling degree days 0  
Year to date cooling degree days 651  
Moisture  
Dew Point 31 °F    
Average Humidity 63    
Maximum Humidity 85    
Minimum Humidity 41    
Precipitation  
Precipitation T in 0.05 in 0.50 in (2015)
Month to date precipitation 1.41 1.30  
Year to date precipitation 28.83 18.35  
Snow  
Snow 0.00 in 0.00 in 3.50 in (2002)
Month to date snowfall 5.3 0.4  
Since 1 July snowfall 5.3 0.4  
Snow Depth 0.00 in    
Sea Level Pressure  
Sea Level Pressure 29.89 in    
Wind  
Wind Speed 10 mph (WNW)    
Max Wind Speed 20 mph    
Max Gust Speed 27 mph    
Visibility 10 miles    
Events      
T = Trace of Precipitation, MM = Missing Value Source: NWS Daily Summary

Daily Weather History Graph

Daily Weather History Graph

Search for Another Location

Airport or City:

Astronomy

Oct. 22, 2019 Rise Set
Actual Time 8:04 AM CDT 6:45 PM CDT
Civil Twilight 7:35 AM CDT 7:15 PM CDT
Nautical Twilight 7:01 AM CDT 7:49 PM CDT
Astronomical Twilight 6:27 AM CDT 8:22 PM CDT
Moon 12:57 AM CDT (10/22) 4:13 PM CDT (10/22)
Length of Visible Light 11h 39m
Length of Day
10h 40m
Last Quarter, 37% of the Moon is Illuminated
Oct 22
Last Quarter
Oct 27
New
Nov 4
First Quarter
Nov 12
Full
Nov 19
Last Quarter

Hourly Weather History & Observations

Time (CDT) Temp. Windchill Dew Point Humidity Pressure Visibility Wind Dir Wind Speed Gust Speed Precip Events Conditions
12:53 AM 37.0 °F 28.1 °F 30.0 °F 76% 29.94 in 10.0 mi NW 15.0 mph - N/A   Clear
1:53 AM 37.0 °F 27.7 °F 30.0 °F 76% 29.94 in 10.0 mi NW 16.1 mph - N/A   Clear
2:53 AM 37.0 °F 27.4 °F 30.0 °F 76% 29.94 in 10.0 mi NW 17.3 mph - N/A   Clear
3:53 AM 37.0 °F 27.4 °F 30.0 °F 76% 29.94 in 10.0 mi NW 17.3 mph - N/A   Clear
4:53 AM 36.0 °F 26.3 °F 30.0 °F 79% 29.95 in 10.0 mi WNW 16.1 mph - N/A   Clear
5:53 AM 33.1 °F 23.9 °F 28.9 °F 85% 29.96 in 10.0 mi West 12.7 mph - N/A   Partly Cloudy
6:53 AM 34.0 °F 25.0 °F 28.9 °F 82% 29.97 in 10.0 mi WNW 12.7 mph - N/A   Scattered Clouds
7:53 AM 32.0 °F 24.8 °F 28.0 °F 85% 29.97 in 10.0 mi WSW 8.1 mph - N/A   Mostly Cloudy
8:53 AM 35.1 °F 27.9 °F 28.9 °F 78% 29.96 in 10.0 mi West 9.2 mph - N/A   Overcast
9:53 AM 39.0 °F 32.8 °F 30.0 °F 70% 29.95 in 10.0 mi West 9.2 mph - N/A   Mostly Cloudy
10:53 AM 44.1 °F 38.6 °F 30.9 °F 60% 29.94 in 10.0 mi West 10.4 mph - N/A   Scattered Clouds
11:53 AM 46.9 °F - 32.0 °F 56% 29.92 in 10.0 mi WSW 9.2 mph - N/A   Clear
12:53 PM 51.1 °F - 33.1 °F 50% 29.90 in 10.0 mi WNW 12.7 mph - N/A   Clear
1:53 PM 53.1 °F - 34.0 °F 48% 29.87 in 10.0 mi NW 12.7 mph - N/A   Clear
2:53 PM 55.0 °F - 35.1 °F 47% 29.84 in 10.0 mi NW 13.8 mph 23.0 mph N/A   Partly Cloudy
3:53 PM 54.0 °F - 30.9 °F 41% 29.83 in 10.0 mi NW 20.7 mph - N/A   Clear
4:53 PM 54.0 °F - 30.0 °F 40% 29.83 in 10.0 mi NW 15.0 mph - N/A   Clear
5:53 PM 51.1 °F - 30.0 °F 44% 29.83 in 10.0 mi NW 10.4 mph - N/A   Clear
6:53 PM 46.9 °F - 30.9 °F 54% 29.82 in 10.0 mi NNW 4.6 mph - N/A   Clear
7:53 PM 43.0 °F 41.3 °F 33.1 °F 68% 29.82 in 10.0 mi North 3.5 mph - N/A   Partly Cloudy
8:53 PM 44.1 °F - 30.9 °F 60% 29.80 in 10.0 mi Calm Calm - N/A   Overcast
9:53 PM 44.1 °F - 32.0 °F 63% 29.79 in 10.0 mi Calm Calm - N/A   Overcast
10:53 PM 43.0 °F - 33.1 °F 68% 29.77 in 10.0 mi Calm Calm - N/A   Scattered Clouds
11:53 PM 39.9 °F - 34.0 °F 79% 29.77 in 10.0 mi Calm Calm - N/A   Overcast